SCP
-0 -0 -0 -0 -0 -0 -0 -1 -0 -0 -0 -0 -0 -0 -0 -0 -0 -0 -0 -0 -0 -0 -0 -0 -0 -0 0 0 -0 -0 -0 -0 0
-0 -0 0 -0 -0 -0 -0 -1 -1 -1 -0 -0 -0 -0 -0 -0 -0 -0 -0 -0 -0 -0 -0 0 0 0 -0 -0 -0 -0 -0 0 0
0 -0 -0 -0 -0 -0 -0 -1 -1 -1 -1 -1 -0 -0 -0 -0 -0 -0 -0 -0 -0 -0 -0 -0 0 0 0 -0 0 0 0 0 0
0 -0 -0 -0 -0 -0 -0 -1 -1 -1 -1 -1 -0 -0 -0 -0 -0 -0 -0 -0 -0 -0 -0 -0 -0 0 0 0 0 0 0 0 0
0 0 0 0 0 -0 -0 -1 -1 -1 -0 -1 -1 -1 -1 -1 -1 -0 -0 -0 -0 -0 -0 -0 -0 -0 -0 0 0 0 0 0 0
0 -0 -0 0 0 0 0 0 0 0 -0 -0 -0 -1 -1 -0 -0 -0 -0 -0 -0 -0 -0 -0 -0 -0 -0 -0 -0 0 0 0 0
0 -0 0 -0 0 0 0 0 0 0 0 0 0 -0 -1 -0 -0 -0 0 0 -0 -0 -0 0 -0 -0 -0 -0 0 -0 0 0 0
0 0 0 0 0 1 1 0 0 0 0 1 -0 -0 -0 -1 0 0 1 0 0 0 0 0 0 0 0 0 0 0 0 0 0
0 0 0 0 0 1 0 2 3 -0 0 1 1 1 1 0 1 1 1 1 1 1 1 0 0 0 0 0 0 0 -0 0 0
0 0 0 0 0 0 0 1 0 1 0 1 2 2 2 3 4 1 1 2 2 1 1 0 0 0 0 0 0 0 -0 -0 0
0 0 -0 -0 0 0 0 0 0 -0 1 0 2 3 3 4 6 4 3 2 2 2 1 0 0 0 0 0 0 0 0 -0 0
0 0 0 0 1 1 1 1 1 1 1 2 1 4 5 6 7 6 4 4 3 2 1 0 0 0 0 0 0 0 0 0 0
0 0 0 1 1 1 1 1 0 1 1 1 2 4 5 5 5 6 5 5 4 3 1 0 0 0 0 0 0 0 0 0 0
0 0 -0 0 0 -0 -0 -0 -0 -0 0 0 1 3 4 5 5 6 6 6 4 1 0 0 0 0 0 0 0 0 0 0 0
0 0 1 1 1 0 -0 -0 -0 -0 0 1 0 2 3 4 4 5 4 2 0 0 0 0 0 0 0 0 0 0 0 0 0
0 0 1 1 1 0 0 -0 -0 0 0 0 1 1 2 2 2 2 1 1 0 0 0 0 0 0 0 0 0 0 0 0 0
0 0 0 0 1 0 0 0 0 0 0 0 0 1 1 1 1 1 0 0 0 0 0 0 0 0 0 0 0 0 0 0 0
0 0 0 0 0 0 0 0 0 -0 -0 -0 0 0 1 1 1 0 0 0 0 0 0 0 0 0 0 0 0 0 0 0 0
0 0 0 0 0 0 0 0 0 0 0 -0 0 1 1 1 1 0 0 0 0 0 0 0 0 0 0 0 0 0 0 0 0
0 0 0 0 0 0 0 0 0 0 0 0 0 0 1 1 0 0 0 0 0 0 0 0 0 0 0 0 0 0 0 0 0
Wind_Speed_500mb
49 61 74 87 89 90 91 90 81 75 75 73 70 65 60 54 47 45 42 37 34 29 31 37 39 37 31 26 20 18 17 19 20
30 44 61 77 89 88 91 93 85 79 72 73 70 68 62 57 53 51 46 42 39 32 27 29 40 42 36 30 22 21 20 21 23
23 37 63 57 72 87 92 95 85 75 70 66 66 69 65 60 56 56 52 46 44 38 31 31 30 33 33 28 24 25 24 25 25
30 29 36 52 67 75 90 92 92 77 68 69 77 76 71 65 63 59 57 57 49 43 40 42 38 35 33 30 30 30 30 30 28
11 5 16 42 58 69 81 94 94 92 73 66 77 79 75 68 63 64 63 64 58 51 50 49 49 44 42 39 38 35 34 32 30
32 28 15 10 33 46 55 63 72 87 87 72 69 80 83 76 69 68 68 68 64 60 57 56 52 50 49 46 45 39 37 34 32
40 43 46 46 37 31 39 50 58 74 88 89 85 80 87 87 78 73 68 68 67 67 66 64 58 55 51 49 47 44 41 36 33
51 68 59 47 33 25 26 26 24 49 75 90 95 95 94 93 86 81 79 75 69 70 72 69 62 56 53 52 52 49 43 38 35
38 35 34 36 29 31 25 1 13 37 70 77 89 100 103 103 100 90 85 85 79 76 76 74 70 64 59 57 54 50 43 39 38
11 18 18 21 22 24 16 15 16 12 26 61 79 89 102 110 110 92 93 90 86 82 82 80 76 72 66 63 55 48 45 42 38
8 17 22 28 26 20 23 25 34 45 41 39 73 86 89 105 113 105 103 98 93 88 87 86 84 79 76 63 52 46 45 42 36
16 18 21 26 32 39 43 46 43 50 56 57 56 75 87 89 107 116 114 107 103 94 91 89 90 85 81 49 51 42 39 40 40
6 8 8 12 17 22 30 40 50 44 46 52 53 61 72 83 99 110 121 118 107 99 91 88 92 89 84 62 60 56 42 45 47
12 10 7 8 14 24 31 37 43 47 41 42 41 53 59 79 92 103 111 109 104 86 81 95 97 86 87 69 57 56 45 53 55
16 11 8 12 19 26 34 36 37 39 43 37 35 43 51 66 74 74 76 53 90 83 80 83 89 85 81 66 61 62 54 58 59
15 13 14 20 27 35 39 37 38 39 40 41 31 29 40 43 50 47 52 71 108 78 72 71 61 60 81 71 67 60 49 54 61
19 18 20 24 33 40 40 36 35 38 39 40 41 40 32 38 36 37 37 56 70 68 46 43 56 46 83 65 65 64 48 57 67
23 24 24 27 32 40 44 43 43 40 41 41 42 44 42 38 40 53 49 51 43 53 60 59 54 69 79 91 83 70 63 72 82
20 24 28 34 42 45 46 48 45 42 33 33 39 43 41 40 40 43 49 45 28 43 43 53 58 54 73 80 64 65 58 62 60
23 23 28 32 40 51 52 41 47 34 35 30 33 35 40 40 41 44 42 40 42 43 53 59 55 63 57 56 50 49 47 55 58
Wind_Direction_500mb
204 202 211 218 219 217 216 214 214 217 215 216 218 219 221 221 222 223 227 228 228 227 236 233 227 239 238 238 247 243 256 261 267
198 216 208 217 218 219 218 213 213 218 218 219 222 223 222 223 223 225 227 229 229 224 226 226 234 231 234 232 239 251 260 271 270
221 210 205 207 215 218 221 219 216 217 221 226 229 227 227 227 225 228 227 230 228 225 223 216 211 204 217 228 242 252 265 273 273
234 202 206 213 213 219 220 220 219 213 220 228 228 229 229 230 228 228 229 230 228 226 223 221 223 222 226 236 246 255 264 267 268
54 296 252 225 214 210 214 219 218 216 217 228 232 232 231 231 230 229 230 230 230 227 224 224 227 231 235 239 246 253 262 264 264
49 68 70 146 205 205 213 223 224 223 220 226 232 234 232 232 230 229 231 232 230 228 227 228 233 234 237 242 247 254 261 260 259
60 76 88 100 122 165 201 218 224 233 235 235 234 234 234 233 232 230 230 232 231 230 228 229 231 233 236 240 246 252 258 255 252
81 80 78 79 91 116 154 174 203 246 247 242 241 239 237 236 235 234 232 233 232 231 230 231 232 234 235 237 242 249 253 249 249
79 57 38 38 46 65 64 234 268 288 252 247 243 242 239 239 235 234 234 234 233 231 230 230 229 230 233 236 240 245 247 245 244
79 22 19 15 5 24 17 291 286 275 245 245 245 245 246 244 238 232 235 236 234 233 230 231 229 230 228 231 234 240 237 238 236
49 67 67 56 38 8 337 327 304 294 300 291 245 245 242 244 246 242 239 237 235 232 230 231 230 230 231 228 233 235 232 233 232
62 57 36 15 5 3 7 355 329 309 298 293 273 246 243 242 245 241 239 237 235 232 229 229 230 230 230 216 240 232 229 235 229
113 95 51 10 355 354 355 359 355 323 311 306 274 255 252 251 247 246 243 239 235 231 229 232 232 232 229 223 220 205 218 234 229
204 235 250 286 326 345 348 349 351 345 326 325 304 264 262 253 251 250 250 244 236 236 240 231 230 232 223 216 218 203 212 233 223
215 230 252 308 323 328 331 335 340 347 344 333 325 293 271 263 260 259 258 266 266 251 246 247 242 228 213 213 215 209 218 216 219
232 262 289 309 316 318 325 328 329 335 339 343 323 310 281 278 272 253 262 236 259 259 239 233 232 229 205 209 206 210 213 218 213
262 274 282 297 306 310 315 326 329 323 323 327 332 331 310 283 273 260 241 247 255 251 232 222 235 251 228 217 206 207 214 225 220
275 278 287 296 304 302 307 315 315 317 321 313 310 310 318 312 279 269 262 246 258 266 242 243 246 230 224 211 208 211 212 210 208
276 280 276 272 278 287 291 298 302 302 308 306 306 310 302 299 303 283 273 269 283 274 265 264 255 232 214 222 216 221 218 215 216
263 273 276 281 284 281 293 298 293 295 290 293 305 312 311 293 287 283 269 270 267 264 253 247 237 226 227 213 225 223 216 217 216
Wind_Speed_850mb
49 61 74 87 89 90 91 90 81 75 75 73 70 65 60 54 47 45 42 37 34 29 31 37 39 37 31 26 20 18 17 19 20
30 44 61 77 89 88 91 93 85 79 72 73 70 68 62 57 53 51 46 42 39 32 27 29 40 42 36 30 22 21 20 21 23
23 37 63 57 72 87 92 95 85 75 70 66 66 69 65 60 56 56 52 46 44 38 31 31 30 33 33 28 24 25 24 25 25
30 29 36 52 67 75 90 92 92 77 68 69 77 76 71 65 63 59 57 57 49 43 40 42 38 35 33 30 30 30 30 30 28
11 5 16 42 58 69 81 94 94 92 73 66 77 79 75 68 63 64 63 64 58 51 50 49 49 44 42 39 38 35 34 32 30
32 28 15 10 33 46 55 63 72 87 87 72 69 80 83 76 69 68 68 68 64 60 57 56 52 50 49 46 45 39 37 34 32
40 43 46 46 37 31 39 50 58 74 88 89 85 80 87 87 78 73 68 68 67 67 66 64 58 55 51 49 47 44 41 36 33
51 68 59 47 33 25 26 26 24 49 75 90 95 95 94 93 86 81 79 75 69 70 72 69 62 56 53 52 52 49 43 38 35
38 35 34 36 29 31 25 1 13 37 70 77 89 100 103 103 100 90 85 85 79 76 76 74 70 64 59 57 54 50 43 39 38
11 18 18 21 22 24 16 15 16 12 26 61 79 89 102 110 110 92 93 90 86 82 82 80 76 72 66 63 55 48 45 42 38
8 17 22 28 26 20 23 25 34 45 41 39 73 86 89 105 113 105 103 98 93 88 87 86 84 79 76 63 52 46 45 42 36
16 18 21 26 32 39 43 46 43 50 56 57 56 75 87 89 107 116 114 107 103 94 91 89 90 85 81 49 51 42 39 40 40
6 8 8 12 17 22 30 40 50 44 46 52 53 61 72 83 99 110 121 118 107 99 91 88 92 89 84 62 60 56 42 45 47
12 10 7 8 14 24 31 37 43 47 41 42 41 53 59 79 92 103 111 109 104 86 81 95 97 86 87 69 57 56 45 53 55
16 11 8 12 19 26 34 36 37 39 43 37 35 43 51 66 74 74 76 53 90 83 80 83 89 85 81 66 61 62 54 58 59
15 13 14 20 27 35 39 37 38 39 40 41 31 29 40 43 50 47 52 71 108 78 72 71 61 60 81 71 67 60 49 54 61
19 18 20 24 33 40 40 36 35 38 39 40 41 40 32 38 36 37 37 56 70 68 46 43 56 46 83 65 65 64 48 57 67
23 24 24 27 32 40 44 43 43 40 41 41 42 44 42 38 40 53 49 51 43 53 60 59 54 69 79 91 83 70 63 72 82
20 24 28 34 42 45 46 48 45 42 33 33 39 43 41 40 40 43 49 45 28 43 43 53 58 54 73 80 64 65 58 62 60
23 23 28 32 40 51 52 41 47 34 35 30 33 35 40 40 41 44 42 40 42 43 53 59 55 63 57 56 50 49 47 55 58
Wind_Direction_850mb
204 202 211 218 219 217 216 214 214 217 215 216 218 219 221 221 222 223 227 228 228 227 236 233 227 239 238 238 247 243 256 261 267
198 216 208 217 218 219 218 213 213 218 218 219 222 223 222 223 223 225 227 229 229 224 226 226 234 231 234 232 239 251 260 271 270
221 210 205 207 215 218 221 219 216 217 221 226 229 227 227 227 225 228 227 230 228 225 223 216 211 204 217 228 242 252 265 273 273
234 202 206 213 213 219 220 220 219 213 220 228 228 229 229 230 228 228 229 230 228 226 223 221 223 222 226 236 246 255 264 267 268
54 296 252 225 214 210 214 219 218 216 217 228 232 232 231 231 230 229 230 230 230 227 224 224 227 231 235 239 246 253 262 264 264
49 68 70 146 205 205 213 223 224 223 220 226 232 234 232 232 230 229 231 232 230 228 227 228 233 234 237 242 247 254 261 260 259
60 76 88 100 122 165 201 218 224 233 235 235 234 234 234 233 232 230 230 232 231 230 228 229 231 233 236 240 246 252 258 255 252
81 80 78 79 91 116 154 174 203 246 247 242 241 239 237 236 235 234 232 233 232 231 230 231 232 234 235 237 242 249 253 249 249
79 57 38 38 46 65 64 234 268 288 252 247 243 242 239 239 235 234 234 234 233 231 230 230 229 230 233 236 240 245 247 245 244
79 22 19 15 5 24 17 291 286 275 245 245 245 245 246 244 238 232 235 236 234 233 230 231 229 230 228 231 234 240 237 238 236
49 67 67 56 38 8 337 327 304 294 300 291 245 245 242 244 246 242 239 237 235 232 230 231 230 230 231 228 233 235 232 233 232
62 57 36 15 5 3 7 355 329 309 298 293 273 246 243 242 245 241 239 237 235 232 229 229 230 230 230 216 240 232 229 235 229
113 95 51 10 355 354 355 359 355 323 311 306 274 255 252 251 247 246 243 239 235 231 229 232 232 232 229 223 220 205 218 234 229
204 235 250 286 326 345 348 349 351 345 326 325 304 264 262 253 251 250 250 244 236 236 240 231 230 232 223 216 218 203 212 233 223
215 230 252 308 323 328 331 335 340 347 344 333 325 293 271 263 260 259 258 266 266 251 246 247 242 228 213 213 215 209 218 216 219
232 262 289 309 316 318 325 328 329 335 339 343 323 310 281 278 272 253 262 236 259 259 239 233 232 229 205 209 206 210 213 218 213
262 274 282 297 306 310 315 326 329 323 323 327 332 331 310 283 273 260 241 247 255 251 232 222 235 251 228 217 206 207 214 225 220
275 278 287 296 304 302 307 315 315 317 321 313 310 310 318 312 279 269 262 246 258 266 242 243 246 230 224 211 208 211 212 210 208
276 280 276 272 278 287 291 298 302 302 308 306 306 310 302 299 303 283 273 269 283 274 265 264 255 232 214 222 216 221 218 215 216
263 273 276 281 284 281 293 298 293 295 290 293 305 312 311 293 287 283 269 270 267 264 253 247 237 226 227 213 225 223 216 217 216